Location: Gerlach
(40.6516°N, 119.3568°W)
Time: 15:35:11
(UTC-07:00)

A-11 Canister half - Pass Details

Date: 24 February 2024
Orbit: 1525 x 1683 km, 47.3° (Epoch: 21 April)

Event Time Altitude Azimuth Distance (km) Brightness Sun altitude
Rises 22:35:12 0° 264° (W) 4,742 11.9 -52.2°
Reaches altitude 10° 22:38:21 10° 267° (W) 3,741 11.2 -52.5°
Enters shadow 22:40:20 18° 271° (W) 3,138 10.8 -52.8°
